• In Russia
  • List of Countries
  • For 7 days
  • Water Temperature
  • Satellite Maps
  • Weather Map
  • Weather Widgets
  • user-avatar
    Login

    Hourly Weather Koma

    Today, 25 April, Thursday

    Time Temperature Precipitation Wind Pressure Humidity
    00:00 +2°C° 0 mm 1 mps 718 mmHg 35%
    01:00 +1°C° 0 mm 1 mps 717 mmHg 37%
    02:00 +1°C° 0 mm 1 mps 717 mmHg 39%
    03:00 +1°C° 0 mm 1 mps 717 mmHg 40%
    04:00 0°C° 0 mm 1 mps 718 mmHg 42%
    05:00 +2°C° 0 mm 1 mps 718 mmHg 38%
    06:00 +4°C° 0 mm 1 mps 718 mmHg 35%
    07:00 +7°C° 0 mm 1 mps 718 mmHg 31%
    08:00 +9°C° 0 mm 1 mps 718 mmHg 31%
    09:00 +10°C° 0 mm 2 mps 718 mmHg 30%
    10:00 +13°C° 0 mm 2 mps 718 mmHg 29%
    11:00 +14°C° 0 mm 2 mps 718 mmHg 27%
    12:00 +15°C° 0 mm 2 mps 718 mmHg 26%
    13:00 +15°C° 0 mm 1 mps 718 mmHg 24%
    14:00 +15°C° 0 mm 1 mps 717 mmHg 25%
    15:00 +15°C° 0 mm 1 mps 717 mmHg 25%
    16:00 +15°C° 0 mm 1 mps 717 mmHg 25%
    17:00 +12°C° 0 mm 1 mps 716 mmHg 31%
    18:00 +10°C° 0 mm 1 mps 716 mmHg 37%
    19:00 +7°C° 0 mm 0 mps 716 mmHg 43%
    20:00 +7°C° 0 mm 1 mps 716 mmHg 45%
    21:00 +7°C° 0 mm 1 mps 716 mmHg 47%
    22:00 +6°C° 0 mm 1 mps 716 mmHg 49%
    23:00 +6°C° 0 mm 1 mps 716 mmHg 49%

    Tomorrow, 26 April, Friday

    Time Temperature Precipitation Wind Pressure Humidity
    00:00 +4°C° 0 mm 2 mps 715 mmHg 49%
    01:00 +4°C° 0 mm 2 mps 715 mmHg 49%
    02:00 +4°C° 0 mm 2 mps 714 mmHg 49%
    03:00 +4°C° 0 mm 2 mps 714 mmHg 49%
    04:00 +4°C° 0 mm 2 mps 713 mmHg 48%
    05:00 +4°C° 0 mm 3 mps 713 mmHg 47%
    06:00 +7°C° 0 mm 3 mps 713 mmHg 46%
    07:00 +8°C° 0 mm 3 mps 713 mmHg 45%
    08:00 +9°C° 0.1 mm 3 mps 713 mmHg 45%
    09:00 +10°C° 0.1 mm 4 mps 712 mmHg 45%
    10:00 +11°C° 0.1 mm 4 mps 712 mmHg 45%
    11:00 +12°C° 0.1 mm 4 mps 712 mmHg 44%
    12:00 +13°C° 0.1 mm 4 mps 712 mmHg 43%
    13:00 +14°C° 0.1 mm 4 mps 712 mmHg 42%
    14:00 +13°C° 0.1 mm 4 mps 712 mmHg 46%
    15:00 +12°C° 0.1 mm 4 mps 712 mmHg 50%
    16:00 +10°C° 0.1 mm 5 mps 712 mmHg 55%
    17:00 +9°C° 0 mm 3 mps 713 mmHg 60%
    18:00 +8°C° 0 mm 2 mps 714 mmHg 65%
    19:00 +8°C° 0 mm 1 mps 714 mmHg 71%
    20:00 +7°C° 0 mm 1 mps 715 mmHg 75%
    21:00 +6°C° 0 mm 1 mps 715 mmHg 79%
    22:00 +5°C° 0 mm 1 mps 715 mmHg 84%
    23:00 +5°C° 0 mm 1 mps 716 mmHg 84%

    Day after tomorrow, 27 April, Saturday

    Time Temperature Precipitation Wind Pressure Humidity
    00:00 +5°C° 0 mm 1 mps 716 mmHg 84%
    01:00 +5°C° 0 mm 1 mps 716 mmHg 85%
    02:00 +4°C° 0 mm 1 mps 716 mmHg 85%
    03:00 +4°C° 0 mm 1 mps 716 mmHg 84%
    04:00 +4°C° 0 mm 1 mps 716 mmHg 84%
    05:00 +6°C° 0 mm 1 mps 716 mmHg 76%
    06:00 +8°C° 0 mm 1 mps 716 mmHg 67%
    07:00 +10°C° 0 mm 1 mps 716 mmHg 59%
    08:00 +12°C° 0 mm 2 mps 716 mmHg 50%
    09:00 +14°C° 0 mm 3 mps 716 mmHg 41%
    10:00 +17°C° 0 mm 3 mps 715 mmHg 32%
    11:00 +18°C° 0 mm 4 mps 715 mmHg 29%
    12:00 +19°C° 0 mm 4 mps 714 mmHg 26%
    13:00 +20°C° 0 mm 4 mps 714 mmHg 23%
    14:00 +19°C° 0 mm 4 mps 714 mmHg 23%
    15:00 +19°C° 0 mm 4 mps 713 mmHg 24%
    16:00 +19°C° 0 mm 3 mps 713 mmHg 24%
    17:00 +17°C° 0 mm 2 mps 713 mmHg 31%
    18:00 +15°C° 0 mm 1 mps 713 mmHg 38%
    19:00 +12°C° 0 mm 0 mps 713 mmHg 44%
    20:00 +10°C° 0 mm 0 mps 713 mmHg 48%
    21:00 +9°C° 0 mm 0 mps 714 mmHg 51%
    22:00 +8°C° 0 mm 0 mps 714 mmHg 54%
    23:00 +9°C° 0 mm 1 mps 714 mmHg 56%

    28 April, Sunday

    Time Temperature Precipitation Wind Pressure Humidity
    00:00 +8°C° 0 mm 1 mps 714 mmHg 58%
    01:00 +7°C° 0 mm 1 mps 714 mmHg 60%
    02:00 +7°C° 0 mm 1 mps 713 mmHg 61%
    03:00 +6°C° 0 mm 1 mps 713 mmHg 62%
    04:00 +6°C° 0 mm 1 mps 713 mmHg 64%
    05:00 +7°C° 0 mm 2 mps 712 mmHg 59%
    06:00 +9°C° 0 mm 2 mps 712 mmHg 54%
    07:00 +12°C° 0 mm 2 mps 712 mmHg 49%
    08:00 +13°C° 0 mm 3 mps 711 mmHg 45%
    09:00 +15°C° 0 mm 4 mps 711 mmHg 41%
    10:00 +18°C° 0 mm 4 mps 710 mmHg 36%
    11:00 +19°C° 0 mm 4 mps 710 mmHg 32%
    12:00 +20°C° 0 mm 5 mps 709 mmHg 28%
    13:00 +21°C° 0 mm 5 mps 708 mmHg 24%
    14:00 +21°C° 0 mm 4 mps 708 mmHg 25%
    15:00 +20°C° 0 mm 4 mps 708 mmHg 25%
    16:00 +20°C° 0 mm 4 mps 707 mmHg 26%
    17:00 +15°C° 0.6 mm 5 mps 708 mmHg 41%
    18:00 +10°C° 0.6 mm 6 mps 709 mmHg 55%
    19:00 +5°C° 0.6 mm 8 mps 710 mmHg 70%
    20:00 +4°C° 0.8 mm 8 mps 712 mmHg 72%
    21:00 +1°C° 0.8 mm 8 mps 714 mmHg 74%
    22:00 0°C° 0.8 mm 8 mps 715 mmHg 76%
    23:00 -1°C° 0.2 mm 8 mps 717 mmHg 74%

    29 April, Monday

    Time Temperature Precipitation Wind Pressure Humidity
    00:00 -1°C° 0.2 mm 7 mps 718 mmHg 72%
    01:00 -2°C° 0.2 mm 7 mps 719 mmHg 70%
    02:00 -3°C° 0 mm 7 mps 720 mmHg 68%
    03:00 -4°C° 0 mm 6 mps 721 mmHg 65%
    04:00 -5°C° 0 mm 5 mps 721 mmHg 63%
    05:00 -5°C° 0 mm 6 mps 722 mmHg 57%
    06:00 -4°C° 0 mm 6 mps 723 mmHg 52%
    07:00 -4°C° 0 mm 6 mps 723 mmHg 46%
    08:00 -2°C° 0 mm 6 mps 723 mmHg 43%
    09:00 -1°C° 0 mm 6 mps 723 mmHg 39%
    10:00 +1°C° 0 mm 6 mps 724 mmHg 35%
    11:00 +2°C° 0 mm 6 mps 723 mmHg 33%
    12:00 +2°C° 0 mm 6 mps 723 mmHg 31%
    13:00 +3°C° 0 mm 5 mps 722 mmHg 29%
    14:00 +3°C° 0 mm 5 mps 722 mmHg 29%
    15:00 +5°C° 0 mm 5 mps 722 mmHg 29%
    16:00 +5°C° 0 mm 5 mps 722 mmHg 29%
    17:00 +3°C° 0 mm 4 mps 722 mmHg 34%
    18:00 +2°C° 0 mm 3 mps 722 mmHg 39%
    19:00 +2°C° 0 mm 1 mps 721 mmHg 44%
    20:00 +2°C° 0 mm 1 mps 722 mmHg 47%
    21:00 +1°C° 0 mm 1 mps 722 mmHg 50%
    22:00 0°C° 0 mm 1 mps 722 mmHg 53%
    23:00 -1°C° 0 mm 1 mps 722 mmHg 53%

    30 April, Tuesday

    Time Temperature Precipitation Wind Pressure Humidity
    00:00 -2°C° 0 mm 0 mps 721 mmHg 54%
    01:00 -2°C° 0 mm 0 mps 721 mmHg 54%
    02:00 -2°C° 0 mm 0 mps 721 mmHg 53%
    03:00 -2°C° 0 mm 0 mps 721 mmHg 53%
    04:00 -2°C° 0 mm 0 mps 721 mmHg 52%
    05:00 +1°C° 0 mm 0 mps 721 mmHg 46%
    06:00 +3°C° 0 mm 0 mps 721 mmHg 39%
    07:00 +6°C° 0 mm 0 mps 721 mmHg 33%
    08:00 +9°C° 0 mm 1 mps 721 mmHg 30%
    09:00 +12°C° 0 mm 1 mps 721 mmHg 28%
    10:00 +14°C° 0 mm 1 mps 720 mmHg 26%
    11:00 +15°C° 0 mm 1 mps 720 mmHg 25%
    12:00 +16°C° 0 mm 1 mps 719 mmHg 24%
    13:00 +18°C° 0 mm 1 mps 718 mmHg 23%
    14:00 +18°C° 0 mm 1 mps 718 mmHg 23%
    15:00 +18°C° 0 mm 1 mps 717 mmHg 23%
    16:00 +18°C° 0 mm 1 mps 717 mmHg 24%
    17:00 +15°C° 0 mm 1 mps 717 mmHg 30%
    18:00 +12°C° 0 mm 1 mps 717 mmHg 37%
    19:00 +10°C° 0 mm 1 mps 717 mmHg 43%
    20:00 +9°C° 0 mm 1 mps 717 mmHg 46%
    21:00 +8°C° 0 mm 1 mps 717 mmHg 48%
    22:00 +7°C° 0 mm 1 mps 717 mmHg 50%
    23:00 +6°C° 0 mm 1 mps 717 mmHg 50%
    Show more